Location: Gad�tanya
(48.0500°N, 20.8500°E)
Time: 07:04:14
(UTC+00:00)

Resurs 01 Rocket - Pass Details

Date: 05 July 2020
Orbit: 634 x 644 km, 98.0° (Epoch: 06 August)

Event Time Altitude Azimuth Distance (km) Brightness Sun altitude
Rises 19:08:16 0° 169° (S) 2,928 4.5 -4.7°
Reaches altitude 10° 19:10:27 10° 171° (S) 2,023 3.7 -5.0°
Maximum altitude 19:14:52 75° 257° (WSW) 664 1.8 -5.5°
Drops below altitude 10° 19:19:18 10° 343° (NNW) 2,034 5.3 -6.0°
Sets 19:21:31 0° 345° (NNW) 2,947 6.2 -6.3°
